Location: Unspecified
(52.4292°N, 19.3359°E)
Time: 23:54:46
(UTC+02:00)

SR - Pass Details

Date: 04 June 2024
Orbit: 580 x 858 km, 66.7° (Epoch: 12 June)

Event Time Altitude Azimuth Distance (km) Brightness Sun altitude
Rises 00:04:24 0° 318° (NW) 2,864 ? -14.7°
Reaches altitude 10° 00:06:44 10° 313° (NW) 1,934 ? -14.7°
Maximum altitude 00:10:54 51° 238° (WSW) 738 ? -14.8°
Enters shadow 00:12:56 27° 175° (S) 1,142 ? -14.9°
Drops below altitude 10° 00:14:59 10° 162° (SSE) 1,894 - -14.9°
Sets 00:17:14 0° 158° (SSE) 2,798 - -14.9°
